Location: Fisheating Creek Campgrounds
(26.9333°N, 81.3167°W)
Time: 22:46:27
(UTC-04:00)

Daily predictions for brighter satellites

Satellite Brightness Start Highest point End
(mag) Time Altitude Azimuth Time Altitude Azimuth Time Altitude Azimuth
Cosmos 1725 Rocket 4.1 20:26:19 10° N 20:32:30 58° E 20:38:34 10° SSE
Cosmos 2278 Rocket 3.3 20:28:49 10° N 20:33:37 28° ENE 20:38:23 10° ESE
Cosmos 1315 Rocket 2.8 20:32:24 10° N 20:36:30 76° E 20:40:30 10° S
Fermi 4.4 20:33:01 10° SW 20:36:49 37° SSE 20:40:35 10° E
Resurs 1-3 3.6 20:33:30 10° SSE 20:37:53 90° ENE 20:42:17 10° NNW
Tiangong 1 1.8 20:34:53 10° WNW 20:37:57 48° SW 20:40:59 10° SE
Cosmos 1025 Rocket 3.7 20:34:04 10° SSE 20:38:05 36° E 20:42:05 10° NNE
Cosmos 2219 Rocket 3.7 20:33:33 10° SW 20:38:53 43° WNW 20:44:15 10° N
BREEZE-M R/B 3.4 20:38:01 10° NNW 20:41:02 47° NE 20:46:26 10° ESE
CZ-2D R/B 4.2 20:37:51 10° SE 20:41:19 32° ENE 20:44:48 10° NNE
PSLV R/B 3.3 20:38:20 10° SW 20:41:49 76° SE 20:45:22 10° ENE
Aureole 2 Rocket 4.4 20:39:49 10° SE 20:42:23 16° E 20:44:50 10° ENE
Cosmos 2016 Rocket 4.4 20:37:38 10° N 20:43:53 69° W 20:50:02 10° S
Meteor 2-15 4.5 20:38:40 10° S 20:44:43 89° W 20:50:48 10° N
SL-16 R/B 2.4 20:39:57 10° S 20:45:23 51° ESE 20:50:49 10° NNE
Cosmos 2123 Rocket 4.5 20:39:21 10° SSW 20:45:29 67° W 20:51:37 10° N
ISS -1.2 20:46:07 10° SE 20:46:14 10° SE 20:46:14 10° SE
USA 186 2.9 20:44:07 10° SE 20:46:35 23° ENE 20:48:56 10° NNE
CZ-4 DEB 4.0 20:45:41 10° SE 20:48:25 26° ENE 20:51:10 10° NNE
Lacrosse 5 rocket 3.6 20:51:52 10° WSW 20:55:07 27° NW 20:58:30 10° N
Meteor 1-13 Rocket 4.3 20:52:01 10° S 20:57:53 87° E 21:03:40 10° N
Cosmos 1500 3.5 20:57:03 10° N 21:00:50 49° E 21:04:35 10° SSE
deb Centaur AC-2 4.4 21:01:18 10° WSW 21:06:11 77° SSE 21:12:11 10° ENE
OTV 4 1.0 21:03:45 10° NW 21:06:39 48° NNE 21:08:28 19° E
Cosmos 1743 3.4 21:07:27 10° NNE 21:11:00 35° E 21:13:02 20° SE
ALOS 2.2 21:06:24 10° SSE 21:11:03 70° ENE 21:15:40 10° N
Okean 2 3.9 21:07:55 10° SSE 21:11:50 40° E 21:15:44 10° NNE
SeaSat 1 4.5 21:10:25 10° E 21:12:36 13° NE 21:14:47 10° NNE
Cosmos 1603 4.4 21:09:25 10° SSE 21:14:17 31° ESE 21:19:08 10° NE
Cosmos 1726 Rocket 4.1 21:10:22 10° NNE 21:14:31 38° E 21:17:04 20° SE
Cosmos 2233 Rocket 3.9 21:08:35 10° N 21:14:50 80° E 21:21:00 10° S
Delta 168 2.9 21:14:13 10° WSW 21:17:35 52° SSE 21:20:25 20° E
YAOGAN 11 4.1 21:14:39 15° SSE 21:18:09 61° ENE 21:22:26 10° N
Palapa B4 Rocket 4.4 21:16:57 10° WSW 21:19:38 19° S 21:20:46 17° SSE
CZ-3C R/B 3.0 21:03:47 10° WSW 21:19:57 37° S 21:22:23 22° SE
Meteor 1-19 Rocket 4.3 21:15:20 10° S 21:21:00 85° W 21:26:37 10° N
Meteor 2-4 Rocket 3.7 21:16:49 10° S 21:22:33 70° E 21:28:25 10° NNE
Cosmos 2058 Rocket 3.6 21:21:26 10° NNE 21:25:31 38° E 21:27:10 27° SE
Cosmos 2098 Rocket 3.3 21:22:37 10° NNW 21:26:12 61° W 21:30:44 10° S
ATLAS 3B R/B 4.0 21:29:52 21° ESE 21:30:08 21° ESE 21:35:30 10° ENE
deb Chang Zheng 4 3.7 21:31:37 10° N 21:36:00 75° WNW 21:40:20 10° SSW
CZ-2C R/B 0.7 21:36:24 63° N 21:36:24 63° N 21:38:25 10° N
Cosmos 2297 4.0 21:30:54 10° N 21:36:28 51° ENE 21:39:04 29° SE
Milstar 3 Cent rocket 2.3 21:28:42 10° W 21:36:46 81° SSW 21:39:27 29° ESE
H-2A R/B 3.4 21:33:38 14° S 21:36:52 54° W 21:40:45 10° NNW
ERS-1 Rocket 2.9 21:36:55 25° SSE 21:39:53 74° ENE 21:44:53 10° N
Cosmos 1844 Rocket 4.4 21:35:39 10° NW 21:40:25 29° WSW 21:45:10 10° SSW
Envisat 3.7 21:39:39 30° ESE 21:41:04 35° ENE 21:45:40 10° N
FENGYUN 3A 4.1 21:36:58 10° S 21:42:11 58° W 21:47:29 10° NNW
H-2A R/B 1.9 21:48:21 42° SSE 21:49:43 81° ENE 21:54:00 10° N
Cosmos 1606 Rocket 4.1 21:45:58 10° NNW 21:50:18 56° W 21:53:07 20° SSW
Cosmos 1110 Rocket 3.9 21:45:11 10° NNW 21:50:29 81° ENE 21:52:39 36° SSE
Hubble Space Telescope 2.4 21:52:51 10° WSW 21:56:02 21° SSW 21:56:04 21° SSW
Cosmos 1626 Rocket 3.4 21:57:47 48° SSE 21:58:56 77° E 22:03:23 10° N
GPS 2-15 Rocket1 4.0 21:58:27 10° WSW 22:02:30 35° SSW 22:02:30 35° SSW
GEOS 3 Rocket 4.2 22:02:56 30° S 22:05:17 50° WSW 22:10:23 10° NW
ATLAS 3B CENTAUR R/B 4.2 22:03:09 10° WSW 22:07:42 24° S 22:09:24 23° S
Atlas Centaur 2 3.0 22:03:38 10° WSW 22:11:20 87° NNW 22:18:15 17° ENE
Cosmos 2278 Rocket 3.8 22:12:46 10° NW 22:17:31 28° WSW 22:21:05 15° SSW
H-2A R/B 4.3 22:19:20 11° NE 22:19:20 11° NE 22:19:50 10° NE
Cosmos 1939 Rocket 3.3 22:18:34 55° WSW 22:18:55 57° W 22:23:01 10° NNW
COSMOS 2455 2.8 22:13:05 10° SSW 22:19:04 87° WNW 22:25:07 10° NNE
Meteor 1-15 Rocket 4.3 22:14:56 10° NNW 22:20:31 74° W 22:22:12 46° SSW
Cosmos 2228 3.3 22:16:48 10° NNW 22:21:09 63° W 22:21:32 60° WSW
Cosmos 1891 Rocket 4.4 22:16:45 10° N 22:22:51 82° W 22:24:40 48° S
SPOT 1/Viking Rocket 4.1 22:26:44 45° ENE 22:26:44 45° ENE 22:31:09 10° N
SPOT 5 2.7 22:26:56 78° WNW 22:26:56 78° WNW 22:31:08 10° NNW
CZ-4 R/B 4.1 22:23:07 10° NNE 22:27:22 59° NE 22:27:22 59° NE
ARGOS 3.9 22:29:23 38° ENE 22:29:23 38° ENE 22:33:47 10° N
Cosmos 2369 Rocket 4.1 22:28:28 10° NNE 22:31:20 16° NE 22:31:20 16° NE
Cosmos 1666 4.1 22:31:32 10° NNW 22:34:49 36° W 22:34:49 36° W
Gbstr 26 Del rocket 4.4 22:31:07 10° NW 22:38:53 81° SW 22:40:41 59° SSE
Geosat 4.1 22:37:28 10° NNE 22:42:05 73° N 22:42:05 73° N
MetOp-B 4.3 22:49:01 68° W 22:49:01 68° W 22:54:12 10° NNW
SeaSat 1 2.9 22:50:09 57° W 22:50:09 57° W 22:54:29 10° NNW
Terra 3.9 22:56:20 19° NNE 22:56:20 19° NNE 22:58:02 10° NNE
Cosmos 1066 Rocket 4.4 22:57:30 68° N 22:57:30 68° N 23:02:29 10° N
ATLAS 3B R/B 3.3 23:16:52 34° SW 23:20:19 63° WNW 23:27:53 10° NNE
Cosmos 1943 4.3 23:23:34 40° WNW 23:23:42 40° WNW 23:29:01 10° N
Cosmos 1634 Rocket 4.5 23:22:54 10° NNW 23:27:54 55° NW 23:27:54 55° NW
USA 234 3.4 23:30:35 68° NW 23:30:35 68° NW 23:36:11 10° NW
Cosmos 1943 Rocket 4.2 23:40:06 10° N 23:42:15 19° NNE 23:42:15 19° NNE
